[[{"header":{"parameterUnit":"m.s-1","parameterCategory":1,"la1":30.2992,"la2":30.254,"lo1":-89.0895,"lo2":-89.0443,"dy":0.0025,"dx":0.0025,"nx":19,"ny":19,"refTime":"2026-05-03T09:00:00:Z","depth":0,"parameterNumber":2,"parameterNumberName":"U-component_of_WINDS"},"data":[0,0,0,0.5072,0.5073,0.5115,0.5115,0.518,0.5181,0,0,0,0,0,0,0,0,0,0,0,0.5066,0.5067,0.5072,0.5073,0.5115,0.5115,0.518,0.5181,0,0,0,0,0,0,0,0,0,0,0,0.5066,0.5066,0.5067,0.5073,0.5115,0.5115,0.518,0.5144,0,0,0,0,0,0,0,0,0,0,0.5102,0.5102,0.5066,0.5067,0.5074,0.5115,0.5115,0.5143,0.5147,0.5166,0,0.5184,0,0.5184,0.5186,0.5186,0,0,0,0.5069,0.5099,0.5104,0.5067,0.5074,0.5115,0.5095,0.5145,0.5149,0.5171,0.5185,0.5187,0.5185,0.5186,0.5187,0.5313,0.5314,0,0,0.5066,0.5077,0.5101,0.5108,0.5102,0.5094,0.5096,0.5147,0.5163,0.5185,0.5189,0.5186,0.5187,0.5188,0.5313,0.5314,0,0,0,0.5063,0.5076,0.508,0.5105,0.5112,0.5095,0.5098,0.5161,0.5161,0.5189,0.5187,0.5187,0.5188,0.5312,0.5313,0.5363,0,0,0,0.5061,0.5073,0.5079,0.5086,0.5111,0.5137,0.5111,0.5158,0.5163,0.5186,0.5187,0.5189,0.5311,0.5312,0.536,0.5385,0,0,0,0.5061,0.5073,0.5082,0.5086,0.5105,0.5136,0.5139,0.5159,0.5162,0.5186,0.5189,0.531,0.5312,0.5357,0.5381,0.5422,0,0,0,0.5064,0.5126,0.5083,0.5151,0.5105,0.5167,0.5139,0.5184,0.5211,0.5188,0.5311,0.5313,0.5356,0.5377,0.5419,0.5459,0.5476,0,0,0.5148,0.5136,0.5175,0.5138,0.5211,0.516,0.524,0.5254,0.5247,0.5292,0.5295,0.5361,0.538,0.5421,0.5572,0.5586,0,0,0,0.5206,0.5234,0.5251,0.5277,0.529,0.5303,0.5304,0.5309,0.5347,0.5272,0.5387,0.5398,0.5422,0.544,0.5452,0.5472,0.5322,0.5322,0.5321,0.5339,0.5327,0.5391,0.5384,0.5409,0.541,0.543,0.5438,0.5417,0.5445,0.5458,0.5551,0.5573,0.5582,0.5603,0.5478,0.5478,0.5479,0.5479,0.5461,0.5499,0.5471,0.5523,0.5509,0.5553,0.5557,0.5541,0.558,0.554,0.556,0.5517,0.5598,0.5615,0.5482,0.5482,0.5481,0.5481,0.5481,0.5547,0.5563,0.5569,0.5606,0.5636,0.5627,0.5666,0.5652,0.5639,0.5659,0.5672,0.5671,0.5669,0.5667,0.5667,0.5667,0.5667,0.5668,0.5668,0.5633,0.5638,0.5673,0.5692,0.5707,0.5726,0.5729,0.5743,0.5757,0.5744,0.5744,0.5721,0.5608,0.558,0.5673,0.5672,0.5671,0.5671,0.5671,0.576,0.573,0.5783,0.5798,0.5821,0.5852,0.5834,0.5866,0.5877,0.5896,0.5869,0.5788,0.5775,0.5766,0.5743,0.5872,0.5872,0.5872,0.5872,0.5833,0.5825,0.5877,0.5903,0.5926,0.5916,0.5977,0.5981,0.5979,0.5984,0.5964,0.5932,0.5923,0.5915,0.5902,0.588,0.6042,0.6042,0.6042,0.591,0.5905,0.5959,0.5957,0.5973,0.5988,0.6045,0.6076,0.6068,0.6049,0.5989,0.5982,0.593,0.5914,0.5892,0.5873,0.5832,0,0]},{"header":{"parameterUnit":"m.s-1","parameterCategory":1,"la1":30.2992,"la2":30.254,"lo1":-89.0895,"lo2":-89.0443,"dy":0.0025,"dx":0.0025,"nx":19,"ny":19,"refTime":"2026-05-03T09:00:00:Z","depth":0,"parameterNumber":3,"parameterNumberName":"V-component_of_WINDS"},"data":[0,0,0,1.1841,1.1838,1.1687,1.1686,1.1526,1.1525,0,0,0,0,0,0,0,0,0,0,0,1.1908,1.1907,1.1841,1.1838,1.1687,1.1686,1.1526,1.1525,0,0,0,0,0,0,0,0,0,0,0,1.1908,1.1908,1.1907,1.1838,1.1687,1.1686,1.1526,1.1628,0,0,0,0,0,0,0,0,0,0,1.1769,1.1853,1.1908,1.1907,1.1837,1.1688,1.1686,1.1632,1.1622,1.1609,0,1.1606,0,1.1563,1.1516,1.1516,0,0,0,1.1821,1.1862,1.1801,1.1907,1.1836,1.1688,1.175,1.1626,1.1614,1.1595,1.1603,1.1596,1.156,1.1515,1.1515,1.1504,1.1505,0,0,1.1829,1.1892,1.181,1.1795,1.1823,1.1755,1.1746,1.1618,1.163,1.1602,1.1592,1.1558,1.1515,1.1514,1.1503,1.1504,0,0,0,1.1865,1.1899,1.184,1.1802,1.1773,1.1751,1.1741,1.1635,1.1611,1.1589,1.1556,1.1514,1.1512,1.1502,1.1504,1.1603,0,0,0,1.1869,1.1919,1.1845,1.1882,1.1776,1.1703,1.1762,1.162,1.1604,1.1557,1.1514,1.1511,1.1502,1.1503,1.1599,1.1639,0,0,0,1.191,1.1923,1.191,1.1885,1.1823,1.1703,1.1671,1.1615,1.1584,1.1516,1.1511,1.1501,1.1503,1.1594,1.1632,1.1655,0,0,0,1.1971,1.1999,1.1912,1.193,1.1825,1.1767,1.1672,1.1625,1.1578,1.1513,1.1502,1.1504,1.1593,1.1628,1.1651,1.1686,1.1707,0,0,1.2041,1.201,1.2015,1.1933,1.1907,1.1785,1.1772,1.1668,1.1603,1.154,1.1539,1.16,1.1632,1.1654,1.18,1.1817,0,0,0,1.2058,1.2063,1.2042,1.2002,1.1925,1.1862,1.1754,1.1715,1.1659,1.1585,1.1612,1.1629,1.164,1.1653,1.1668,1.1673,1.1513,1.1513,1.1512,1.2246,1.2164,1.2166,1.2066,1.2027,1.1916,1.1877,1.1805,1.1731,1.1739,1.172,1.1819,1.1837,1.1847,1.1854,1.1731,1.1732,1.1732,1.1732,1.2341,1.2334,1.2237,1.2205,1.2116,1.2087,1.1981,1.193,1.1888,1.1826,1.1831,1.1771,1.1869,1.1869,1.1739,1.1738,1.1737,1.1736,1.1736,1.2455,1.2437,1.2392,1.2325,1.2282,1.2177,1.2143,1.2063,1.1987,1.1992,1.1962,1.196,1.1948,1.1984,1.1984,1.1984,1.1985,1.1985,1.1985,1.2592,1.2537,1.2519,1.2441,1.2404,1.2346,1.2234,1.2195,1.2131,1.2075,1.2074,1.1999,1.1894,1.187,1.199,1.1989,1.1988,1.1988,1.1988,1.2718,1.2677,1.265,1.2614,1.2515,1.2477,1.2376,1.2303,1.2259,1.2244,1.2168,1.2104,1.2065,1.2053,1.2032,1.2187,1.2186,1.2187,1.2187,1.2814,1.2788,1.2742,1.2689,1.2628,1.2534,1.2504,1.2418,1.2321,1.2288,1.2254,1.2219,1.2211,1.2176,1.2162,1.2141,1.232,1.232,1.232,1.2887,1.2851,1.2842,1.275,1.2666,1.2596,1.2565,1.2507,1.2388,1.2324,1.226,1.2255,1.2198,1.2183,1.2118,1.2097,1.2057,0,0]}]]